GW2554 Weather Reports


Display with metric or nautical units.
time (UTC)temp
F
wind
direction
speed
MPH
gust
MPH
rain 1hr
in
rain 24hr
in
rain mn
in
humidity
%
barometer
mb
20260504160349 73 248 8.0 14.0 0.00 0.00 0.00 48 1001.1
20260504150814 69 215 11.0 13.0 0.00 0.00 0.00 54 1001.5
20260504150311 68 249 7.0 8.0 0.00 0.00 0.00 54 1001.6
20260504141241 64 229 8.0 9.0 0.00 0.00 0.00 55 1002.2
20260504140737 64 248 7.0 7.0 0.00 0.00 0.00 56 1002.1
20260504140233 63 245 5.0 6.0 0.00 0.00 0.00 57 1002.0
20260504130702 58 232 4.0 6.0 0.00 0.00 0.00 61 1002.4
20260504130157 58 232 3.0 3.0 0.00 0.00 0.00 62 1002.4
20260504120122 54 232 1.0 2.0 0.00 0.00 0.00 66 1002.4
20260504110549 53 233 2.0 3.0 0.00 0.00 0.00 66 1002.6
20260504100511 53 232 3.0 3.0 0.00 0.00 0.00 64 1003.4
20260504081904 56 231 1.0 1.0 0.00 0.00 0.00 57 1004.3
20260504081401 56 241 1.0 1.0 0.00 0.00 0.00 56 1004.2
20260504080856 56 240 1.0 1.0 0.00 0.00 0.00 56 1004.5
20260504080354 56 240 1.0 1.0 0.00 0.00 0.00 56 1004.5
20260504070321 56 241 1.0 1.0 0.00 0.00 0.00 57 1005.6
20260504060241 59 232 2.0 3.0 0.00 0.00 0.00 47 1006.4
20260504050703 60 237 1.0 2.0 0.00 0.00 0.00 45 1006.6
20260504050200 60 236 0.0 0.0 0.00 0.00 0.00 47 1006.6
20260504045657 61 236 0.0 1.0 0.00 0.00 0.00 45 1006.7
20260504045152 61 236 2.0 2.0 0.00 0.00 0.00 44 1006.8
20260504044650 61 236 1.0 1.0 0.00 0.00 0.00 45 1006.8
20260504044147 61 235 1.0 1.0 0.00 0.00 0.00 44 1006.7
20260504043644 61 240 1.0 1.0 0.00 0.00 0.00 44 1006.7
20260504043141 61 241 0.0 1.0 0.00 0.00 0.00 44 1006.8
20260504042638 61 240 0.0 1.0 0.00 0.00 0.00 45 1007.1
20260504042135 61 240 1.0 1.0 0.00 0.00 0.00 44 1007.0
20260504041630 62 240 1.0 1.0 0.00 0.00 0.00 43 1007.1
20260504041127 62 240 1.0 1.0 0.00 0.00 0.00 43 1007.1
20260504040624 62 239 2.0 2.0 0.00 0.00 0.00 41 1007.3
20260504040121 62 240 1.0 1.0 0.00 0.00 0.00 41 1007.3
20260504035618 62 241 1.0 2.0 0.00 0.00 0.00 41 1007.5
20260504035114 63 239 1.0 1.0 0.00 0.00 0.00 41 1007.5
20260504034612 63 239 2.0 2.0 0.00 0.00 0.00 40 1007.4
20260504034109 64 242 2.0 2.0 0.00 0.00 0.00 39 1007.5
20260504033607 64 235 2.0 2.0 0.00 0.00 0.00 39 1007.4
20260504033104 64 245 2.0 2.0 0.00 0.00 0.00 38 1007.8
20260504032601 64 248 2.0 2.0 0.00 0.00 0.00 38 1007.7
20260504032058 64 245 2.0 2.0 0.00 0.00 0.00 38 1007.8
20260504031554 65 242 2.0 2.0 0.00 0.00 0.00 38 1007.9
20260504031050 65 243 2.0 2.0 0.00 0.00 0.00 37 1007.8
20260504030548 65 243 2.0 2.0 0.00 0.00 0.00 37 1008.0
20260504030044 65 251 3.0 3.0 0.00 0.00 0.00 37 1007.8
20260504025542 65 249 2.0 2.0 0.00 0.00 0.00 37 1007.9
20260504025038 66 259 2.0 2.0 0.00 0.00 0.00 36 1007.7
20260504024535 66 256 2.0 2.0 0.00 0.00 0.00 36 1007.9
20260504024032 66 266 1.0 2.0 0.00 0.00 0.00 36 1007.9
20260504023529 66 245 2.0 2.0 0.00 0.00 0.00 36 1007.9
20260504023024 66 238 2.0 2.0 0.00 0.00 0.00 36 1007.8
20260504022520 66 258 2.0 2.0 0.00 0.00 0.00 36 1007.9
20260504022017 66 246 2.0 2.0 0.00 0.00 0.00 36 1008.0
20260504021515 66 241 2.0 3.0 0.00 0.00 0.00 36 1007.6
20260504021012 67 247 1.0 2.0 0.00 0.00 0.00 36 1007.9
20260504020508 67 253 2.0 2.0 0.00 0.00 0.00 35 1007.7
20260504020005 67 252 1.0 2.0 0.00 0.00 0.00 35 1007.8
20260504015501 68 252 2.0 2.0 0.00 0.00 0.00 35 1007.7
20260504014957 68 256 1.0 1.0 0.00 0.00 0.00 35 1007.6
20260504014453 68 253 1.0 1.0 0.00 0.00 0.00 35 1007.7
20260504013950 68 250 2.0 2.0 0.00 0.00 0.00 34 1007.7
20260504013449 69 246 2.0 2.0 0.00 0.00 0.00 34 1007.7
20260504012944 69 240 2.0 2.0 0.00 0.00 0.00 33 1007.6
20260504012443 69 243 2.0 2.0 0.00 0.00 0.00 33 1007.7
20260504011940 69 246 2.0 2.0 0.00 0.00 0.00 33 1007.7
20260504011436 70 257 3.0 3.0 0.00 0.00 0.00 33 1007.5
20260504010932 70 247 2.0 2.0 0.00 0.00 0.00 32 1007.7
20260504010428 71 244 2.0 2.0 0.00 0.00 0.00 32 1007.4
20260504005925 71 249 1.0 1.0 0.00 0.00 0.00 31 1007.7
20260504005422 71 238 3.0 3.0 0.00 0.00 0.00 30 1007.6
20260504004919 72 265 3.0 3.0 0.00 0.00 0.00 30 1007.5
20260504004417 72 258 3.0 3.0 0.00 0.00 0.00 31 1007.5
20260504003914 72 251 6.0 7.0 0.00 0.00 0.00 30 1007.8
20260504003410 73 240 6.0 8.0 0.00 0.00 0.00 29 1007.6
20260504002907 74 270 4.0 5.0 0.00 0.00 0.00 27 1007.7
20260504002404 74 262 5.0 6.0 0.00 0.00 0.00 27 1007.6
20260504001901 74 262 7.0 8.0 0.00 0.00 0.00 26 1007.9
20260504001359 74 298 11.0 14.0 0.00 0.00 0.00 25 1007.6
20260504000855 74 265 4.0 5.0 0.00 0.00 0.00 26 1007.7
20260504000354 74 275 9.0 10.0 0.00 0.00 0.00 25 1007.8
20260503235849 74 252 10.0 10.0 0.00 0.00 0.00 26 1007.9
20260503235347 75 252 5.0 7.0 0.00 0.00 0.00 26 1007.7
20260503234844 74 259 4.0 5.0 0.00 0.00 0.00 26 1007.7
20260503234342 75 281 14.0 16.0 0.00 0.00 0.00 25 1007.8
20260503233839 75 247 4.0 5.0 0.00 0.00 0.00 25 1008.0
20260503233335 75 242 6.0 9.0 0.00 0.00 0.00 25 1007.7
20260503232832 75 260 10.0 11.0 0.00 0.00 0.00 24 1007.8
20260503232329 75 251 9.0 13.0 0.00 0.00 0.00 24 1007.6
20260503231827 75 274 7.0 9.0 0.00 0.00 0.00 24 1007.8
20260503231324 75 258 14.0 18.0 0.00 0.00 0.00 24 1007.9
20260503230820 75 263 9.0 11.0 0.00 0.00 0.00 24 1007.8
20260503230317 75 254 8.0 11.0 0.00 0.00 0.00 24 1007.9
20260503225815 75 305 7.0 11.0 0.00 0.00 0.00 24 1007.7
20260503225310 75 284 7.0 13.0 0.00 0.00 0.00 24 1008.0
20260503224807 75 337 12.0 14.0 0.00 0.00 0.00 25 1007.8
20260503224304 76 296 16.0 22.0 0.00 0.00 0.00 25 1007.9
20260503223802 75 247 9.0 14.0 0.00 0.00 0.00 26 1007.9
20260503223259 75 264 17.0 22.0 0.00 0.00 0.00 25 1007.7
20260503222755 76 257 12.0 17.0 0.00 0.00 0.00 26 1008.1
20260503222254 75 304 6.0 7.0 0.00 0.00 0.00 26 1007.9
20260503221751 75 276 3.0 3.0 0.00 0.00 0.00 26 1008.1
20260503221249 75 301 9.0 10.0 0.00 0.00 0.00 25 1007.8
20260503220745 75 289 7.0 9.0 0.00 0.00 0.00 25 1007.9
20260503220243 76 341 5.0 9.0 0.00 0.00 0.00 27 1008.2
20260503215739 75 5 13.0 17.0 0.00 0.00 0.00 25 1008.1
20260503215236 75 354 14.0 21.0 0.00 0.00 0.00 25 1008.0
20260503214734 75 351 2.0 3.0 0.00 0.00 0.00 27 1007.9
20260503214231 75 354 13.0 25.0 0.00 0.00 0.00 26 1008.3
20260503213729 74 288 16.0 20.0 0.00 0.00 0.00 26 1008.2
20260503213226 75 303 8.0 10.0 0.00 0.00 0.00 25 1007.9
20260503212723 74 2 11.0 16.0 0.00 0.00 0.00 25 1008.0
20260503212221 75 288 9.0 13.0 0.00 0.00 0.00 26 1008.2
20260503211718 74 308 9.0 10.0 0.00 0.00 0.00 28 1007.9
20260503211214 74 315 11.0 14.0 0.00 0.00 0.00 26 1008.2
20260503210709 74 287 11.0 16.0 0.00 0.00 0.00 27 1008.1
20260503210207 75 286 12.0 16.0 0.00 0.00 0.00 26 1008.2
20260503205703 75 326 12.0 15.0 0.00 0.00 0.00 26 1008.1
20260503205159 75 291 9.0 11.0 0.00 0.00 0.00 26 1008.1
20260503204655 75 298 9.0 13.0 0.00 0.00 0.00 27 1008.2
20260503204153 75 276 10.0 13.0 0.00 0.00 0.00 26 1008.3
20260503203649 76 285 8.0 9.0 0.00 0.00 0.00 27 1008.3
20260503203148 74 28 10.0 13.0 0.00 0.00 0.00 28 1008.2
20260503202644 74 334 12.0 14.0 0.00 0.00 0.00 28 1008.5
20260503202142 75 260 9.0 11.0 0.00 0.00 0.00 27 1008.5
20260503201640 75 295 10.0 11.0 0.00 0.00 0.00 27 1008.4
20260503201137 75 357 14.0 20.0 0.00 0.00 0.00 29 1008.6
20260503200633 75 349 11.0 14.0 0.00 0.00 0.00 28 1008.6
20260503200130 75 309 5.0 7.0 0.00 0.00 0.00 29 1008.5
20260503195627 74 269 10.0 13.0 0.00 0.00 0.00 29 1008.5
20260503195124 75 272 15.0 17.0 0.00 0.00 0.00 28 1008.6
20260503194621 75 314 10.0 10.0 0.00 0.00 0.00 29 1008.7
20260503194116 75 278 9.0 11.0 0.00 0.00 0.00 29 1008.7
20260503193613 74 335 10.0 13.0 0.00 0.00 0.00 29 1008.6
20260503193109 74 348 16.0 20.0 0.00 0.00 0.00 28 1008.6
20260503192604 74 277 5.0 6.0 0.00 0.00 0.00 29 1008.6
20260503192100 74 322 12.0 15.0 0.00 0.00 0.00 31 1008.7
20260503191557 75 290 7.0 10.0 0.00 0.00 0.00 31 1008.6
20260503191054 73 2 9.0 15.0 0.00 0.00 0.00 30 1008.7
20260503190550 73 312 7.0 10.0 0.00 0.00 0.00 31 1008.9
20260503190048 74 299 9.0 13.0 0.00 0.00 0.00 31 1008.7
20260503185539 73 277 15.0 18.0 0.00 0.00 0.00 30 1008.9
20260503185038 73 1 11.0 13.0 0.00 0.00 0.00 29 1008.8
20260503184535 73 351 10.0 17.0 0.00 0.00 0.00 30 1008.7
20260503184031 74 333 10.0 11.0 0.00 0.00 0.00 30 1008.8
20260503183528 73 276 9.0 10.0 0.00 0.00 0.00 31 1008.7
20260503183025 73 228 7.0 8.0 0.00 0.00 0.00 32 1008.9
20260503182524 73 39 10.0 13.0 0.00 0.00 0.00 32 1008.8
20260503182021 72 271 7.0 9.0 0.00 0.00 0.00 31 1009.0
20260503181518 72 297 24.0 27.0 0.00 0.00 0.00 31 1009.0
20260503181014 72 167 9.0 11.0 0.00 0.00 0.00 33 1009.1
20260503180512 72 330 11.0 20.0 0.00 0.00 0.00 32 1008.6
20260503180009 73 289 5.0 6.0 0.00 0.00 0.00 32 1008.9
20260503175507 72 238 8.0 13.0 0.00 0.00 0.00 32 1008.9
20260503175003 73 23 8.0 10.0 0.00 0.00 0.00 32 1008.9
20260503174501 73 300 12.0 15.0 0.00 0.00 0.00 33 1008.9
20260503173956 72 268 7.0 13.0 0.00 0.00 0.00 32 1008.8
20260503173452 72 337 7.0 9.0 0.00 0.00 0.00 34 1008.7
20260503172949 71 16 15.0 21.0 0.00 0.00 0.00 34 1008.8
20260503172446 71 286 12.0 15.0 0.00 0.00 0.00 34 1008.8
20260503171942 71 305 7.0 10.0 0.00 0.00 0.00 37 1009.2
20260503171439 71 287 8.0 10.0 0.00 0.00 0.00 36 1009.0
20260503170937 71 11 7.0 10.0 0.00 0.00 0.00 37 1009.3
20260503170433 71 281 15.0 18.0 0.00 0.00 0.00 36 1009.3